Regional Weather Roundup
Issued by NWS San Angelo, TX

Home | Current Version | Previous Version | Text Only | Print | Product List | Glossary On
Versions: 1 2 3 4 5 6 7 8 9 10 11 12 13 14 15 16 17 18 19 20 21 22 23 24 25 26 27 28 29 30 31 32 33 34 35 36 37 38 39 40 41 42 43 44 45 46 47 48 49 50
000
ASUS44 KSJT 300711
RWRSJT
WEST CENTRAL TEXAS REGIONAL WEATHER ROUNDUP
NATIONAL WEATHER SERVICE SAN ANGELO TX
200 AM CDT SAT APR 30 2016

NOTE: "FAIR" INDICATES FEW OR NO CLOUDS BELOW 12,000 FEET WITH NO
SIGNIFICANT WEATHER AND/OR OBSTRUCTIONS TO VISIBILITY.

TXZ049-054-064>066-071>073-076>078-098-099-113-114-127-128-139-140-
154-155-168>170-300800
...LOCATIONS ACROSS WEST CENTRAL TEXAS...

CITY           SKY/WX    TMP DP  RH WIND       PRES   REMARKS
SAN ANGELO     CLOUDY    57  41  55 SW6       29.72R
ABILENE        MOCLDY    58  52  80 N13       29.75S
DYESS AFB      PTCLDY    58  53  83 NW10      29.76F
JUNCTION       CLEAR     56  52  86 CALM      29.71S
SWEETWATER     MOCLDY    58  55  88 N10G16    29.79F
BROWNWOOD      NOT AVBL
COLEMAN        MOSUNNY   61  56  84 N6        29.74R
SONORA         MOCLDY    55  46  71 CALM      29.76F
OZONA          FAIR      55  36  47 NE5       29.78S
BRADY          NOT AVBL
$$

TEXAS PANHANDLE/OKLAHOMA PANHANDLE

CITY           SKY/WX    TMP DP  RH WIND       PRES   REMARKS
AMARILLO       CLOUDY    41  38  89 NW14      29.81S WCI  33
BORGER         CLOUDY    42  38  85 NW15      29.82S WCI  34
CANADIAN       MOCLDY    44  42  95 NW8       29.79S WCI  39
DALHART        CLEAR     37  34  89 NW5       29.84R WCI  33
DUMAS          SUNNY     36  35  95 N10       29.82F WCI  29
GUYMON         NOT AVBL
HEREFORD       PTSUNNY   43  41  93 N9        29.85R WCI  38
PAMPA          CLOUDY    43  40  91 N22       29.80R WCI  33
PERRYTON       CLOUDY    42  40  92 NW17      29.80S WCI  34
$$

SOUTHERN PANHANDLE/SOUTH PLAINS/ROLLING PLAINS

CITY           SKY/WX    TMP DP  RH WIND       PRES   REMARKS
LUBBOCK        CLEAR     48  43  82 CALM      29.78S
SNYDER           N/A     56  50  81 NE10      29.79R
CHILDRESS      CLEAR     50  45  83 N7        29.78S
SEMINOLE       SUNNY     58  25  27 NW12G23   29.79R
$$

PERMIAN BASIN

CITY           SKY/WX    TMP DP  RH WIND       PRES   REMARKS
MIDLAND        CLEAR     65  17  15 VRB7      29.76R
ODESSA         CLEAR     64  16  15 NW17      29.74F
WINK           CLEAR     59  19  21 NW13      29.76
$$

FAR WEST/SOUTHWEST MOUNTAINS/TRANS PECOS

CITY           SKY/WX    TMP DP  RH WIND       PRES   REMARKS
ALPINE         SUNNY     55  11  17 W3        29.91S
DRYDEN           N/A     64  18  17 SW3       29.74S
EL PASO        PTCLDY    62  28  27 N7        29.87S
FORT STOCKTON  PTCLDY    57  17  21 SW10      29.79S
GUADALUPE PASS CLEAR     56  25  30 W30G38    29.86F
MARFA          CLEAR     47  14  26 W12       29.89F
PECOS          SUNNY     56  15  19 W7        29.77S
$$

DALLAS/FORT WORTH METROPLEX

CITY           SKY/WX    TMP DP  RH WIND       PRES   REMARKS
DFW AIRPORT    PTCLDY    66  62  87 N10       29.62S
FTW MEACHAM    CLEAR     65  60  84 NW13      29.64S
DAL-EXECUTIVE  PTCLDY    67  62  84 NW12      29.64R
GRAND PRAIRIE  CLEAR     68  61  78 NW3       29.64S
ADDISON        PTCLDY    66  65  94 N6        29.66S
MESQUITE       PTSUNNY   68  67  96 NW6       29.64R
LANCASTER      PTSUNNY   68  65  88 NW7       29.65R
$$

NORTH CENTRAL TEXAS

CITY           SKY/WX    TMP DP  RH WIND       PRES   REMARKS
SHRMAN/DENISON CLOUDY    58  56  92 NW10      29.67S FOG
GAINESVILLE    CLOUDY    61  60  96 NW8       29.70R FOG
BRIDGEPORT     SUNNY     60  59  96 NW7       29.69S
DENTON         MOCLDY    65  61  87 N6        29.67R
WAXAHACHIE     MOSUNNY   67  67  98 NW13      29.65R
GRANBURY       SUNNY     65  60  85 W10       29.69R
$$

WESTERN NORTH TEXAS

CITY           SKY/WX    TMP DP  RH WIND       PRES   REMARKS
WICHITA FALLS  CLOUDY    55  51  86 NW15      29.71F
VERNON         SUNNY     51  46  80 NW7       29.76S
BRECKENRIDGE   MOSUNNY   59  54  82 NW6       29.72F
COMANCHE       CLEAR     62  58  87 NW7       29.71S
$$

CENTRAL AND SOUTH CENTRAL TEXAS

CITY           SKY/WX    TMP DP  RH WIND       PRES   REMARKS
AUSTIN/BERGSTM PTCLDY    75  71  87 CALM      29.62F
WACO           CLEAR     67  64  90 W7        29.64R
HILLSBORO      SUNNY     66  61  85 NW8       29.64R
TEMPLE         PTCLDY    67  65  93 NW15G22   29.66R
KILLEEN-GRAY   CLOUDY    66  64  91 VRB6G23   29.65R
FORT HOOD      MOCLDY    65  64  94 VRB5      29.64R
GEORGETOWN     CLEAR     70  66  88 CALM      29.63S
LAGO VISTA     PTSUNNY   75  73  94 SE5       29.65F FOG
SAN MARCOS     PTCLDY    73  70  88 CALM      29.64F
NEW BRAUNFELS  CLOUDY    72  68  87 N5        29.63S
RANDOLPH AFB   CLOUDY    72  72 100 NE6       29.62F
SAN ANTONIO    CLOUDY    71  69  93 CALM      29.62F
STINSON        CLOUDY    79  74  84 S8        29.59F HAZE
PLEASANTON     NOT AVBL
LA GRANGE      DRIZZLE   78  77  96 S6        29.61F
GIDDINGS       CLOUDY    76  74  94 SW5       29.67S FOG
$$

EAST TEXAS

CITY           SKY/WX    TMP DP  RH WIND       PRES   REMARKS
PARIS          CLOUDY    66  59  77 NW6       29.63R
CLARKSVILLE    NOT AVBL
TYLER          LGT RAIN  69  67  93 SW3       29.63F
LONGVIEW       RAIN      67  66  97 S16       29.65S
PALESTINE      NOT AVBL
NACOGDOCHES    CLOUDY    72  70  94 NE5       29.66R THUNDER
$$

TEXAS HILL COUNTRY AND EDWARDS PLATEAU

CITY           SKY/WX    TMP DP  RH WIND       PRES   REMARKS
LLANO          MOSUNNY   63  63 100 CALM      29.69F
HORSESHOE BAY  RAIN      73  72  95 CALM      29.65S
KERRVILLE      CLOUDY    66  64  92 NW7       29.66F
FREDERICKSBRG  CLOUDY    71  67  87 S3        29.68F
ROCKSPRINGS    CLOUDY    70  37  30 CALM      29.74S
HONDO          CLOUDY    72  70  93 SE5       29.62F
UVALDE         CLOUDY    71  69  94 N9        29.63S FOG
DEL RIO        MOCLDY    76  48  37 NW14      29.61F
$$

SOUTHEAST TEXAS

CITY           SKY/WX    TMP DP  RH WIND       PRES   REMARKS
COLLEGE STN    LGT RAIN  71  67  87 W10       29.62S
CALDWELL       CLOUDY    75  75 100 CALM      29.65F FOG
CROCKETT       HVY RAIN  68  66  94 W8G20     29.67R
BRENHAM        HVY RAIN  78  76  96 SW10      29.63S
HUNTSVILLE     TSTM      77  71  82 S10G20    29.62R
CONROE         CLOUDY    77  70  79 S14       29.63F
HOUSTON BUSH   CLOUDY    76  72  87 S14G25    29.63F
HOUSTON HOBBY  CLOUDY    76  73  91 S15G25    29.63F
PERLAND        CLOUDY    79  73  82 S16G23    29.65F
WHARTON        CLOUDY    77  74  90 S16G22    29.64F
$$

THE UPPER TEXAS COAST

CITY           SKY/WX    TMP DP  RH WIND       PRES   REMARKS
ORANGE         CLOUDY    76  71  83 S12G17    29.70S
PORT ARTHUR    CLOUDY    76  73  91 S16G25    29.66F
GALVESTON      CLOUDY    76  75  97 S17       29.68F
ANGLETON       LGT RAIN  77  74  90 S15G25    29.66F FOG
BAY CITY       CLOUDY    77  76  97 S10       29.65F FOG
$$

TEXAS COASTAL BEND, RIO GRANDE PLAINS DEEP SOUTH TEXAS

CITY           SKY/WX    TMP DP  RH WIND       PRES   REMARKS
VICTORIA       CLOUDY    78  75  90 S10       29.62F FOG
BEEVILLE       CLOUDY    78  77  98 S10       29.60F FOG
ROCKPORT       CLOUDY    79  75  87 S8        29.61F
PORT ARANSAS   CLOUDY    78  78 100 S13G21    29.61F FOG
PORT LAVACA    CLOUDY    78  76  95 S9        29.63F FOG
CORPUS CHRISTI CLOUDY    79  75  87 S12       29.60F
KINGSVILLE NAS CLOUDY    78  78 100 S9        29.59F FOG
COTULLA        CLOUDY    79  73  82 SE6       29.59S
LAREDO         CLOUDY    79  75  87 SE12      29.58F
BROWNSVILLE    CLOUDY    78  76  93 S10       29.61F FOG
PORT ISABEL    CLOUDY    80  77  90 S15G21    29.59F FOG
HEBBRONVILLE   CLOUDY    78  74  88 S7        29.61F FOG
MCALLEN        CLOUDY    79  75  87 SE8       29.60F FOG
WESLACO        CLOUDY    78  75  90 S7        29.59F FOG
FALFURRIAS     CLOUDY    80  74  83 SE6       29.59F
EDINBURG       MOSUNNY   80  75  85 S6        29.59F HAZE
$$




USA.gov is the U.S. government's official web portal to all federal, state and local government web resources and services.